Date,TemperatureHighF,TemperatureAvgF,TemperatureLowF,DewpointHighF,DewpointAvgF,DewpointLowF,HumidityHigh,HumidityAvg,HumidityLow,PressureMaxIn,PressureMinIn,WindSpeedMaxMPH,WindSpeedAvgMPH,GustSpeedMaxMPH,PrecipitationSumIn
2013-1-1,15.6,4.3,-10.7,13.0,0.4,-15.0,88,84,79,30.25,29.82,12,7,18,0.00
2013-1-2,17.2,10.5,0.0,15.0,6.7,-4.0,90,84,77,30.30,29.81,19,7,23,0.00
2013-1-3,28.4,14.4,1.4,19.0,8.8,-2.0,86,78,66,30.29,29.80,20,9,27,0.00
2013-1-4,27.9,17.0,1.4,20.0,11.3,-2.0,87,78,72,30.16,29.88,13,5,15,0.00
2013-1-5,10.2,6.0,-0.3,7.0,1.3,-4.0,88,81,67,30.17,30.10,7,2,9,0.00
2013-1-6,18.1,10.9,-2.5,15.0,7.5,-6.0,89,85,80,30.23,29.60,27,8,36,0.00
2013-1-7,33.2,24.6,16.4,28.0,19.4,13.0,87,81,70,29.81,29.47,19,7,30,0.00
2013-1-8,34.1,25.7,14.0,30.0,21.5,11.0,90,84,77,29.80,29.48,20,10,34,0.00
2013-1-9,25.7,23.8,21.3,22.0,18.4,16.0,88,80,70,30.16,29.55,19,8,27,0.00
2013-1-10,38.8,30.7,24.0,31.0,25.3,18.0,90,80,74,29.99,29.66,20,7,27,0.00
2013-1-11,27.3,13.4,5.9,25.0,10.4,3.0,91,87,85,29.77,29.64,29,18,38,0.00
2013-1-12,5.9,-3.9,-16.4,3.0,-8.3,-22.0,86,81,76,30.24,29.75,31,13,36,0.00
2013-1-13,1.0,-9.5,-25.7,-4.0,-14.3,-31.0,82,79,76,30.30,30.20,7,2,13,0.00
2013-1-14,1.5,-3.0,-11.2,-3.0,-7.5,-15.0,84,81,74,30.34,30.20,5,2,8,0.00
2013-1-15,23.1,3.8,-14.5,21.0,-0.4,-19.0,91,83,75,30.20,29.50,17,7,28,0.00
2013-1-16,17.3,-5.6,-16.6,13.0,-12.7,-24.0,85,71,57,30.36,29.59,20,8,25,0.00
2013-1-17,-2.7,-7.4,-13.1,-11.0,-13.4,-18.0,84,75,64,30.51,30.25,7,2,11,0.00
2013-1-18,7.2,2.9,-6.1,4.0,-1.3,-11.0,86,82,77,30.24,29.80,9,4,10,0.00
2013-1-19,7.3,-1.9,-14.8,4.0,-6.3,-20.0,86,81,75,30.42,29.75,31,9,38,0.00
2013-1-20,-6.8,-12.9,-20.8,-13.0,-18.5,-26.0,81,76,67,30.47,30.40,13,4,22,0.00
2013-1-21,-20.9,-21.5,-22.1,-26.0,-26.8,-28.0,76,76,74,30.43,30.38,10,6,12,0.00
2013-1-23,-29.4,-25.8,-30.7,-35.0,-44.8,-99.9,75,63,73,30.81,30.80,0,-143,1,0.00
2013-1-24,-1.5,-14.8,-33.3,-6.0,-20.5,-39.0,82,75,66,30.81,30.07,17,6,20,0.00
2013-1-25,-1.0,-9.0,-20.5,-5.0,-14.1,-25.0,83,78,69,30.41,30.04,10,4,15,0.00
2013-1-26,10.1,-1.1,-21.9,2.0,-7.3,-27.0,86,75,64,30.38,30.12,17,5,22,0.00
2013-1-27,18.2,6.5,-7.5,14.0,2.2,-12.0,89,82,73,30.12,29.88,6,1,9,0.00
2013-1-28,20.9,14.1,2.2,15.0,10.5,-1.0,90,85,75,29.89,29.79,6,1,8,0.00
2013-1-29,19.0,12.4,-1.7,16.0,8.2,-7.0,90,83,76,30.07,29.77,16,7,21,0.00
2013-1-30,5.1,0.6,-6.8,1.0,-3.8,-11.0,85,81,77,30.06,29.97,13,6,19,0.00
2013-1-31,-6.8,-14.3,-22.7,-11.0,-20.3,-29.0,80,74,67,30.38,30.06,16,8,21,0.00
2013-2-1,-8.4,-21.1,-32.4,-18.0,-27.7,-38.0,80,72,59,30.35,30.21,8,2,12,0.00
2013-2-2,2.8,-11.5,-30.7,-2.0,-16.7,-36.0,82,77,71,30.33,30.09,12,4,15,0.00
2013-2-3,3.5,-2.5,-14.4,-2.0,-8.5,-19.0,87,76,64,30.19,30.12,14,3,17,0.00
2013-2-4,11.3,-1.5,-23.6,7.0,-5.7,-29.0,86,82,76,30.13,29.71,13,4,19,0.00
2013-2-5,-0.9,-5.5,-14.3,-4.0,-10.5,-19.0,87,79,73,30.16,29.78,9,3,10,0.00
2013-2-6,11.2,4.6,-0.8,6.0,-0.3,-6.0,88,80,76,30.32,30.08,6,2,10,0.00
2013-2-7,9.3,-1.0,-8.7,0.0,-6.1,-13.0,86,79,65,30.43,30.33,4,1,4,0.00
2013-2-8,24.1,12.3,-7.7,18.0,8.2,-12.0,88,83,75,30.38,30.06,16,6,24,0.00
2013-2-9,26.8,23.3,21.1,23.0,19.4,-99.9,91,87,84,30.05,29.91,13,-4,21,0.00
2013-2-10,27.6,24.4,22.3,24.0,21.4,17.0,91,88,81,29.96,29.87,18,7,22,0.00
2013-2-11,22.9,15.4,11.6,18.0,10.9,7.0,87,82,72,30.00,29.80,25,9,28,0.00
2013-2-12,31.6,21.6,10.9,24.0,16.1,8.0,88,79,66,29.79,29.65,13,7,20,0.00
2013-2-13,28.8,19.8,6.6,23.0,15.7,2.0,90,84,75,29.91,29.66,14,5,16,0.00
2013-2-14,12.5,4.3,-2.3,6.0,-0.6,-6.0,86,80,68,30.34,29.92,11,4,14,0.00
2013-2-15,13.0,1.5,-7.6,7.0,-2.8,-12.0,87,82,71,30.40,30.28,8,3,14,0.00
2013-2-16,17.9,8.8,-4.5,14.0,3.8,-8.0,87,80,73,30.28,29.89,21,10,27,0.00
2013-2-17,30.2,24.3,17.8,26.0,21.1,14.0,91,87,83,29.88,29.48,21,12,33,0.00
2013-2-18,21.9,2.7,-7.4,20.0,-1.8,-15.0,90,81,69,30.33,29.63,34,23,42,0.00
2013-2-19,-4.3,-10.7,-15.7,-15.0,-18.8,-22.0,74,68,56,30.66,30.34,26,12,32,0.00
2013-2-20,8.4,-2.6,-21.0,-6.0,-13.6,-26.0,79,61,46,30.69,30.51,13,4,15,0.00
2013-2-21,21.9,9.2,1.9,4.0,-2.3,-7.0,80,61,45,30.53,30.34,17,6,24,0.00
2013-2-22,20.8,9.5,0.4,13.0,3.9,-4.0,87,78,69,30.33,29.99,6,1,8,0.00
2013-2-23,22.1,17.7,9.5,19.0,14.7,6.0,91,88,84,29.99,29.91,10,3,14,0.00
2013-2-24,26.2,18.6,13.3,18.0,14.6,11.0,90,84,70,30.04,29.98,13,5,17,0.00
2013-2-25,33.8,20.2,4.0,24.0,15.4,1.0,90,82,65,30.04,29.94,16,6,19,0.00
2013-2-26,32.2,20.6,11.0,19.0,14.3,8.0,88,77,57,30.15,29.95,15,4,17,0.00
2013-2-27,29.4,22.3,10.1,23.0,17.5,7.0,90,82,76,30.35,30.15,23,9,26,0.00
2013-2-28,24.5,14.4,4.8,14.0,8.4,1.0,89,77,63,30.45,30.35,5,2,7,0.00
2013-3-1,23.4,9.8,0.7,10.0,3.9,-2.0,88,78,57,30.49,30.40,2,0,4,0.00
2013-3-2,26.6,18.5,2.3,19.0,9.2,-5.0,85,67,51,30.39,30.11,19,7,25,0.00
2013-3-3,31.5,26.1,21.1,22.0,16.9,14.0,78,69,55,30.11,29.98,14,5,19,0.00
2013-3-4,27.9,23.7,21.1,20.0,17.5,11.0,90,78,51,30.29,30.02,17,7,22,0.00
2013-3-5,23.8,19.9,15.9,18.0,16.6,14.0,90,86,77,30.47,30.28,11,5,13,0.00
2013-3-6,27.3,16.0,1.7,16.0,11.2,-2.0,90,81,60,30.51,30.39,9,1,13,0.00
2013-3-7,30.9,17.9,-0.9,19.0,10.6,-4.0,89,74,57,30.41,30.21,15,4,18,0.00
2013-3-8,25.7,22.1,14.6,22.0,17.5,11.0,89,82,71,30.22,30.16,9,4,14,0.00
2013-3-9,29.4,22.2,16.0,20.0,16.5,13.0,88,79,61,30.16,29.93,17,4,19,0.00
2013-3-10,21.8,16.1,3.2,18.0,9.3,-1.0,87,75,59,30.33,30.10,20,7,24,0.00
2013-3-11,25.7,14.6,0.1,14.0,6.5,-4.0,87,71,54,30.16,29.91,7,2,9,0.00
2013-3-12,23.2,18.0,8.0,18.0,11.4,1.0,84,75,66,30.35,29.99,16,7,20,0.00
2013-3-13,19.4,9.3,-7.3,12.0,1.7,-11.0,85,72,56,30.40,30.14,15,5,18,0.00
2013-3-14,28.1,21.7,10.7,21.0,15.8,5.0,87,78,71,30.25,30.07,17,8,22,0.00
2013-3-15,10.3,4.1,-0.7,4.0,-2.8,-7.0,82,73,63,30.30,30.25,13,9,20,0.00
2013-3-16,8.1,0.1,-10.3,2.0,-6.5,-16.0,83,74,57,30.40,30.27,14,4,20,0.00
2013-3-17,14.2,1.5,-19.1,10.0,-5.5,-24.0,87,73,53,30.40,29.85,16,6,23,0.00
2013-3-18,17.1,13.3,4.6,14.0,9.0,-4.0,89,83,65,30.00,29.68,24,11,27,0.00
2013-3-19,15.0,5.1,-5.2,1.0,-5.4,-12.0,74,63,51,30.36,30.00,18,8,25,0.00
2013-3-20,17.1,7.6,-1.8,5.0,-2.6,-10.0,82,64,56,30.41,30.27,14,6,17,0.00
2013-3-21,22.3,7.4,-7.9,10.0,0.0,-12.0,86,73,56,30.27,30.22,8,2,10,0.00
2013-3-22,28.1,12.7,-4.8,18.0,6.6,-9.0,87,77,65,30.24,30.18,7,2,9,0.00
2013-3-23,33.3,18.2,-1.7,22.0,12.7,-5.0,89,79,62,30.29,30.21,12,3,14,0.01
2013-3-24,29.6,23.4,17.5,24.0,17.3,13.0,86,77,66,30.33,30.27,15,8,21,0.00
2013-3-25,30.4,23.6,16.4,21.0,17.5,13.0,88,78,64,30.40,30.34,13,5,16,0.00
2013-3-26,31.8,19.2,4.9,19.0,12.7,2.0,90,77,57,30.38,30.35,7,2,8,0.00
2013-3-27,35.0,16.3,-3.2,21.0,9.1,-7.0,90,75,49,30.41,30.36,6,1,9,0.00
2013-3-28,41.2,25.6,5.4,27.0,16.7,2.0,90,72,43,30.37,30.26,12,4,15,0.00
2013-3-29,36.8,25.9,17.5,30.0,22.3,15.0,91,86,73,30.27,30.00,9,4,13,0.00
2013-3-30,39.5,31.0,22.8,30.0,23.5,19.0,90,75,45,29.99,29.88,16,5,23,0.00
2013-3-31,26.9,19.2,11.3,24.0,11.5,5.0,90,72,58,30.27,29.91,20,10,26,0.00
2013-4-1,29.2,18.3,6.9,16.0,8.7,2.0,81,67,55,30.34,30.27,11,5,17,0.00
2013-4-2,27.3,17.8,7.7,10.0,5.3,1.0,75,59,38,30.45,30.28,7,2,10,0.00
2013-4-3,39.5,27.5,16.0,31.0,18.7,3.0,84,70,55,30.34,29.87,33,11,37,0.00
2013-4-4,33.2,24.3,12.6,25.0,14.5,7.0,82,67,54,30.33,30.01,13,7,19,0.00
2013-4-5,33.3,20.7,2.4,25.0,10.5,-1.0,89,67,40,30.33,29.97,13,3,19,0.00
2013-4-6,34.8,31.7,28.0,30.0,27.3,25.0,90,84,76,29.95,29.79,16,6,21,0.06
2013-4-7,30.0,25.7,20.4,24.0,19.0,11.0,86,76,67,29.99,29.90,13,6,15,0.00
2013-4-8,22.5,17.9,10.5,12.0,9.0,5.0,77,68,58,30.37,30.00,22,10,25,0.00
2013-4-9,31.0,18.8,5.1,19.0,8.8,-1.0,78,66,48,30.51,30.38,7,4,10,0.00
2013-4-10,37.7,24.8,6.9,20.0,13.0,4.0,90,63,44,30.44,30.18,8,2,9,0.00
2013-4-11,41.8,30.0,18.8,23.0,14.6,9.0,69,54,33,30.19,30.04,12,4,16,0.00
2013-4-12,36.8,33.4,29.2,25.0,22.6,20.0,77,65,51,30.05,29.94,11,3,13,0.00
2013-4-13,37.7,30.4,16.3,23.0,19.7,14.0,90,66,49,30.01,29.96,9,2,12,0.00
2013-4-14,42.2,31.8,16.7,27.0,20.8,10.0,81,65,46,30.05,29.83,11,4,15,0.00
2013-4-15,35.5,32.1,30.2,30.0,28.4,26.0,91,86,69,30.02,29.73,18,11,23,0.00
2013-4-16,35.9,30.4,26.4,28.0,20.3,15.0,87,67,48,30.43,30.01,17,8,20,0.00
2013-4-17,40.2,31.0,21.1,30.0,24.2,15.0,87,76,61,30.43,30.20,8,2,9,0.00
2013-4-18,39.3,33.1,26.0,27.0,22.0,18.0,89,66,42,30.20,29.97,23,10,27,0.00
2013-4-19,32.4,27.1,21.7,20.0,16.3,13.0,76,65,46,30.11,29.96,23,11,30,0.00
2013-4-20,35.2,26.1,9.7,18.0,11.4,2.0,86,57,25,30.25,30.12,13,4,16,0.00
2013-4-21,40.1,33.2,29.2,34.0,27.3,18.0,89,79,64,30.17,29.92,20,9,22,0.08
2013-4-22,34.9,29.8,25.1,24.0,19.7,17.0,82,67,51,30.37,30.10,13,6,20,0.00
2013-4-23,39.0,30.9,18.1,25.0,20.9,15.0,87,68,47,30.33,29.97,12,4,18,0.00
2013-4-24,39.4,32.2,25.9,31.0,27.1,22.0,90,81,67,30.00,29.84,14,4,16,0.01
2013-4-25,42.2,33.8,22.9,32.0,26.5,20.0,90,76,58,30.06,29.89,17,8,25,0.00
2013-4-26,60.1,46.1,35.2,43.0,36.7,32.0,87,71,50,29.98,29.83,18,7,28,0.00
2013-4-27,60.9,50.8,43.9,45.0,40.1,37.0,83,68,53,29.94,29.60,18,8,26,0.00
2013-4-28,60.8,51.1,39.5,44.0,34.7,22.0,82,57,24,29.81,29.48,26,9,31,0.00
2013-4-29,56.7,43.4,27.3,45.0,33.8,24.0,88,71,39,29.83,29.52,14,6,21,0.21
2013-4-30,46.3,39.4,29.2,43.0,37.0,26.0,92,91,87,29.95,29.38,16,4,19,0.72
2013-5-1,30.3,27.1,23.6,26.0,22.8,20.0,89,84,74,30.68,29.96,16,7,19,0.00
2013-5-2,34.8,29.2,24.7,27.0,23.7,21.0,89,80,66,30.77,30.61,10,4,12,0.00
2013-5-3,49.2,36.2,21.8,35.0,27.0,20.0,91,71,50,30.61,30.36,8,3,11,0.00
2013-5-4,55.7,42.3,25.5,36.0,28.0,22.0,90,60,37,30.39,30.30,14,3,16,0.00
2013-5-5,64.9,49.3,34.4,37.0,33.2,23.0,83,57,32,30.32,30.06,9,3,11,0.00
2013-5-6,77.7,62.3,43.6,44.0,38.4,36.0,77,45,23,30.06,29.90,14,7,23,0.00
2013-5-7,75.4,64.8,51.2,49.0,43.2,39.0,64,47,29,29.93,29.82,17,8,25,0.00
2013-5-8,52.1,44.8,35.1,40.0,31.3,24.0,75,60,41,30.28,29.89,27,16,31,0.00
2013-5-9,54.9,42.6,28.3,27.0,23.7,20.0,80,51,29,30.38,30.22,15,6,19,0.00
2013-5-10,51.8,43.6,32.9,43.0,30.2,21.0,85,60,44,30.22,29.94,31,9,34,0.06
2013-5-11,44.5,37.2,27.2,32.0,24.2,15.0,79,61,40,30.33,30.15,24,11,26,0.00
2013-5-12,58.7,41.9,19.9,25.0,20.4,14.0,85,47,23,30.29,29.97,13,3,22,0.00
2013-5-13,78.0,60.9,46.2,45.0,33.8,24.0,48,37,26,29.96,29.51,27,11,35,0.00
2013-5-14,77.0,65.1,53.7,59.0,46.5,37.0,75,53,35,29.64,29.25,25,11,36,0.07
2013-5-15,68.7,57.0,40.4,46.0,40.0,32.0,90,57,34,29.89,29.65,18,5,23,0.00
2013-5-16,71.3,57.3,40.2,39.0,33.8,31.0,76,45,26,29.99,29.89,9,2,13,0.00
2013-5-17,66.0,55.3,40.3,52.0,44.3,34.0,80,67,48,30.02,29.92,11,4,15,0.06
2013-5-18,67.1,57.7,53.3,54.0,48.1,43.0,91,72,50,29.92,29.85,10,3,11,0.11
2013-5-19,64.6,56.1,48.6,55.0,51.7,46.0,91,85,64,29.91,29.83,21,7,23,0.24
2013-5-20,57.7,54.0,48.4,52.0,47.9,40.0,88,80,68,29.93,29.81,27,13,32,0.21
2013-5-21,71.3,57.8,46.0,40.0,32.4,22.0,67,43,16,29.98,29.91,19,8,29,0.01
2013-5-22,67.1,55.9,39.0,49.0,39.6,28.0,85,56,41,30.22,29.98,25,8,29,0.00
2013-5-23,63.5,50.9,33.9,34.0,30.4,24.0,76,48,24,30.41,30.24,11,3,25,0.00
2013-5-24,70.5,56.1,35.1,46.0,34.7,28.0,82,49,27,30.31,30.13,12,4,21,0.04
2013-5-25,65.4,57.4,50.8,51.0,47.9,45.0,85,71,57,30.20,30.13,20,6,20,0.00
2013-5-26,72.8,63.7,52.9,50.0,46.4,42.0,79,56,34,30.17,30.01,19,7,24,0.00
2013-5-27,75.6,63.5,50.1,54.0,48.4,45.0,84,60,36,30.01,29.73,15,5,20,0.00
2013-5-28,65.9,61.4,59.0,55.0,53.4,51.0,86,75,66,29.73,29.62,12,8,20,0.03
2013-5-29,66.1,62.5,53.8,58.0,56.0,50.0,88,79,74,29.73,29.67,11,7,15,0.00
2013-5-30,60.8,56.7,51.9,56.0,53.6,49.0,91,89,85,29.72,29.59,18,8,24,0.74
2013-5-31,54.4,51.7,47.5,51.0,48.7,43.0,91,89,82,29.83,29.52,18,9,26,0.71
2013-6-1,55.8,49.7,46.0,44.0,42.0,38.0,87,75,57,30.10,29.83,22,11,26,0.00
2013-6-2,60.0,48.5,34.8,40.0,32.9,24.0,91,60,27,30.15,30.06,19,5,20,0.00
2013-6-3,66.1,52.2,34.7,39.0,33.3,29.0,91,55,26,30.12,30.03,12,2,15,0.00
2013-6-4,70.2,58.4,43.0,41.0,37.3,32.0,81,49,26,30.12,30.06,16,3,17,0.00
2013-6-5,74.2,60.0,40.8,45.0,41.1,36.0,85,54,30,30.12,30.03,12,2,18,0.00
2013-6-6,62.6,62.5,62.2,41.0,41.0,41.0,46,45,45,29.94,29.94,9,7,10,0.00
2013-6-7,67.7,61.2,53.9,52.0,49.1,41.0,84,66,48,29.95,29.83,19,6,21,0.01
2013-6-8,75.6,63.5,48.7,53.0,49.1,46.0,91,63,39,29.86,29.82,19,6,21,0.00
2013-6-9,70.9,61.9,56.0,58.0,53.3,48.0,88,74,56,29.87,29.82,13,5,19,0.17
2013-6-10,70.6,61.0,51.5,59.0,54.6,49.0,92,80,63,29.82,29.66,12,3,20,0.16
2013-6-11,73.1,63.1,51.9,56.0,50.1,45.0,90,65,38,29.88,29.77,13,4,21,0.00
2013-6-12,71.5,62.5,48.0,57.0,52.1,46.0,92,70,52,30.06,29.88,15,5,17,0.00
2013-6-13,77.8,65.5,50.4,56.0,47.9,42.0,92,58,29,30.16,30.01,9,2,13,0.00
2013-6-14,76.9,65.5,55.6,62.0,55.3,46.0,84,70,54,30.01,29.70,14,5,21,0.11
2013-6-15,77.3,66.8,56.6,60.0,51.8,47.0,84,61,36,29.76,29.66,16,6,27,0.00
2013-6-16,71.8,64.2,55.5,57.0,54.3,51.0,86,71,56,29.85,29.70,9,4,15,0.00
2013-6-17,72.2,63.1,50.7,57.0,50.7,43.0,89,67,35,30.05,29.86,11,3,14,0.00
2013-6-18,76.4,63.9,43.6,58.0,52.5,41.0,92,68,45,30.08,29.90,11,4,15,0.00
2013-6-19,81.0,70.4,57.2,62.0,55.2,51.0,83,60,41,29.92,29.86,11,4,15,0.00
2013-6-20,78.1,69.1,55.8,63.0,58.4,52.0,88,70,59,29.93,29.85,15,5,19,0.01
2013-6-21,72.4,67.4,60.2,64.0,61.2,57.0,90,81,68,29.98,29.85,7,2,11,0.00
2013-6-22,78.0,70.1,60.8,68.0,63.2,58.0,91,79,66,29.95,29.77,14,5,17,0.00
2013-6-23,72.2,64.1,58.7,65.0,60.7,56.0,92,88,78,29.78,29.46,19,4,19,0.72
2013-6-24,81.9,70.1,57.4,61.0,57.6,54.0,90,67,44,29.70,29.59,13,6,26,0.00
2013-6-25,88.5,73.3,55.1,71.0,62.6,53.0,92,71,48,29.71,29.54,11,2,26,0.00
2013-6-26,79.8,69.8,63.0,66.0,62.7,59.0,92,79,61,29.64,29.53,13,4,23,0.42
2013-6-27,71.4,65.9,61.4,64.0,61.0,59.0,92,84,69,29.80,29.62,19,6,25,0.08
2013-6-28,72.0,66.2,61.8,65.0,61.3,58.0,91,84,75,29.96,29.80,15,6,19,0.00
2013-6-29,78.5,68.3,57.6,65.0,57.7,53.0,90,71,42,30.05,29.95,14,4,20,0.00
2013-6-30,80.2,68.2,51.0,63.0,56.6,49.0,92,69,43,30.16,30.05,12,2,14,0.00
2013-7-1,84.7,70.3,53.2,63.0,56.5,51.0,93,66,35,30.21,30.10,4,1,8,0.00
2013-7-2,87.5,74.9,59.5,67.0,60.4,55.0,86,63,41,30.10,29.95,6,2,10,0.00
2013-7-3,88.8,76.4,61.7,65.0,61.2,57.0,90,63,36,29.95,29.71,11,3,17,0.00
2013-7-4,87.8,76.7,67.7,70.0,62.7,58.0,80,63,45,29.72,29.61,12,5,17,0.00
2013-7-5,81.3,73.6,63.3,67.0,62.0,58.0,90,69,46,29.73,29.64,9,3,14,0.00
2013-7-6,80.7,71.5,62.8,66.0,61.6,58.0,87,72,52,29.78,29.71,6,2,10,0.00
2013-7-7,78.2,70.5,58.8,66.0,62.8,56.0,91,77,58,29.89,29.73,9,4,15,0.08
2013-7-8,81.5,67.4,53.1,67.0,60.0,51.0,93,79,48,29.93,29.81,10,3,17,0.26
2013-7-9,70.1,63.6,58.0,60.0,55.3,52.0,88,75,60,29.93,29.84,11,4,17,0.03
2013-7-10,75.8,66.3,56.2,64.0,59.0,54.0,91,78,54,29.98,29.91,6,3,10,0.00
2013-7-11,84.3,74.0,62.8,68.0,61.0,56.0,82,65,41,29.92,29.65,23,8,25,0.00
2013-7-12,79.0,74.9,70.0,71.0,68.3,67.0,89,80,73,29.75,29.57,16,7,27,0.04
2013-7-13,82.4,73.8,64.8,67.0,62.0,58.0,90,68,47,29.97,29.75,8,3,11,0.00
2013-7-14,73.3,66.9,54.9,61.0,57.5,52.0,90,72,53,30.18,29.92,14,6,22,0.16
2013-7-15,84.2,68.5,53.0,71.0,59.2,50.0,91,74,49,30.19,29.93,12,4,23,0.00
2013-7-16,77.9,73.3,58.0,68.0,62.6,53.0,85,70,54,30.14,29.84,15,5,21,0.01
2013-7-17,79.2,68.8,57.0,61.0,55.0,49.0,84,64,39,30.21,30.03,7,2,11,0.00
2013-7-18,77.7,67.9,61.2,67.0,61.1,54.0,92,79,65,30.05,29.59,8,2,24,0.50
2013-7-19,75.3,65.1,53.8,65.0,55.5,44.0,92,73,43,29.95,29.66,13,6,28,0.02
2013-7-20,66.0,55.5,43.4,50.0,46.2,41.0,90,72,52,30.08,29.95,9,2,11,0.00
2013-7-21,71.8,59.3,46.9,61.0,51.1,-99.9,92,78,56,29.99,29.52,14,-7,17,0.37
2013-7-22,68.4,63.4,57.4,62.0,55.3,52.0,91,76,58,29.92,29.50,19,8,25,0.00
2013-7-23,72.7,60.7,48.0,61.0,53.2,46.0,93,78,53,30.05,29.92,8,1,15,0.23
2013-7-24,72.3,63.0,56.0,64.0,58.1,53.0,92,84,72,29.99,29.84,9,3,28,0.58
2013-7-25,62.7,57.5,52.6,58.0,54.6,51.0,94,90,81,30.08,29.84,16,4,18,1.37
2013-7-26,64.2,57.1,49.0,53.0,49.6,46.0,91,77,62,30.24,30.08,15,5,20,0.00
2013-7-27,68.8,58.2,44.7,54.0,48.9,43.0,93,73,53,30.21,30.05,16,4,21,0.00
2013-7-28,75.7,61.1,44.1,56.0,48.1,42.0,93,67,36,30.07,29.98,7,1,8,0.00
2013-7-29,75.2,62.9,47.1,59.0,52.2,44.0,92,70,47,30.00,29.90,12,4,19,0.01
2013-7-30,72.6,65.3,57.0,62.0,58.3,55.0,93,79,58,29.97,29.89,11,4,17,0.12
2013-7-31,69.6,61.8,52.2,56.0,53.6,49.0,91,75,57,29.96,29.92,13,4,22,0.00
2013-8-1,72.9,63.3,56.6,59.0,55.2,53.0,90,76,53,29.93,29.84,9,3,23,0.00
2013-8-2,71.1,61.1,51.6,58.0,52.0,47.0,90,74,51,30.10,29.88,10,3,13,0.00
2013-8-3,72.3,59.7,46.0,55.0,49.5,44.0,92,72,45,30.23,30.10,6,1,10,0.00
2013-8-4,51.0,50.8,50.6,48.0,48.0,48.0,90,90,89,30.20,30.19,0,0,0,0.00
2013-8-6,67.3,63.1,55.3,51.0,48.0,45.0,81,59,45,29.89,29.78,19,7,21,0.00
2013-8-7,63.3,56.3,48.4,52.0,46.9,43.0,91,72,55,30.02,29.89,11,3,18,0.01
2013-8-8,66.0,55.5,42.9,51.0,47.5,40.0,93,76,52,30.03,29.94,14,3,21,0.01
2013-8-9,63.7,57.2,50.2,57.0,52.3,48.0,93,84,71,30.13,29.93,13,4,18,0.01
2013-8-10,74.8,60.7,48.5,58.0,52.7,47.0,94,78,48,30.15,30.05,11,2,15,0.14
2013-8-11,75.1,63.0,52.0,60.0,55.2,50.0,94,78,47,30.08,30.00,9,2,12,0.02
2013-8-12,68.9,61.0,47.9,57.0,51.2,45.0,91,72,45,30.16,30.00,15,4,16,0.00
2013-8-13,69.7,56.8,42.7,56.0,47.6,41.0,94,74,46,30.23,30.15,11,2,14,0.00
2013-8-14,76.9,60.5,41.5,60.0,49.3,40.0,94,70,43,30.17,30.02,8,1,10,0.00
2013-8-15,80.6,66.9,50.2,59.0,53.7,47.0,91,65,39,30.04,29.98,8,2,15,0.00
2013-8-16,85.0,73.1,60.7,66.0,59.6,55.0,87,64,44,29.98,29.88,23,8,27,0.00
2013-8-17,81.4,71.8,62.5,68.0,62.2,57.0,82,72,59,29.90,29.75,22,11,32,0.00
2013-8-18,79.1,71.8,63.3,69.0,65.8,60.0,92,82,64,29.82,29.75,16,4,20,0.70
2013-8-19,91.2,76.9,61.2,69.0,65.5,59.0,93,71,41,29.80,29.61,14,5,21,0.00
2013-8-20,84.1,74.1,62.9,69.0,62.7,56.0,87,69,45,29.73,29.61,13,4,18,0.00
2013-8-21,74.8,66.5,57.2,60.0,51.8,45.0,91,63,35,30.06,29.74,18,4,21,0.00
2013-8-22,76.5,64.5,51.6,56.0,51.2,48.0,87,65,41,30.17,30.06,7,2,10,0.00
2013-8-23,82.3,69.9,55.9,61.0,54.6,49.0,77,60,41,30.07,29.83,15,6,22,0.00
2013-8-24,86.9,75.9,69.8,76.0,68.6,59.0,89,78,64,29.83,29.60,16,7,23,0.02
2013-8-25,90.8,76.9,67.0,72.0,67.1,60.0,90,74,37,29.88,29.68,8,2,10,0.00
2013-8-26,90.3,75.1,60.6,69.0,64.0,58.0,94,71,42,29.90,29.79,8,2,9,0.00
2013-8-27,90.9,77.2,62.0,75.0,67.6,59.0,93,74,50,29.84,29.78,8,1,13,0.00
2013-8-28,91.4,77.4,63.8,70.0,63.4,53.0,93,67,29,29.93,29.84,5,1,7,0.00
2013-8-29,78.8,70.9,65.6,70.0,66.1,63.0,92,85,68,29.91,29.78,7,2,18,0.63
2013-8-30,84.4,73.7,62.3,71.0,66.1,61.0,95,78,59,29.95,29.66,13,4,18,0.00
2013-8-31,84.1,71.7,56.7,68.0,63.1,55.0,92,75,45,29.80,29.59,15,6,29,0.02
2013-9-1,64.5,57.5,47.0,54.0,50.4,45.0,92,78,58,30.06,29.80,13,6,20,0.01
2013-9-2,73.3,58.9,40.8,52.0,47.3,39.0,94,69,42,30.11,29.91,10,4,16,0.00
2013-9-3,80.2,63.7,52.0,65.0,52.5,43.0,81,68,47,30.08,29.84,19,7,23,0.00
2013-9-4,69.2,54.2,37.2,48.0,41.7,35.0,93,67,37,30.23,30.08,8,1,11,0.00
2013-9-5,82.1,66.3,48.1,61.0,49.8,40.0,80,58,30,30.18,29.89,14,6,21,0.00
2013-9-6,90.6,76.1,67.5,76.0,65.0,55.0,86,69,52,29.91,29.77,11,5,16,0.02
2013-9-7,77.4,66.9,55.5,60.0,55.6,51.0,86,69,41,30.13,29.91,17,5,20,0.00
2013-9-8,72.2,61.7,47.4,59.0,53.8,45.0,92,76,60,30.13,29.82,8,2,11,0.00
2013-9-9,66.2,61.7,56.3,61.0,58.1,54.0,92,88,82,29.82,29.69,5,1,8,0.01
2013-9-10,79.7,67.6,59.4,63.0,59.8,57.0,93,78,52,29.83,29.73,11,3,19,0.01
2013-9-11,72.7,61.7,53.9,61.0,55.1,50.0,92,80,48,30.16,29.84,15,3,30,0.07
2013-9-12,68.9,57.9,44.8,54.0,50.4,43.0,92,78,50,30.28,30.16,9,2,11,0.00
2013-9-13,77.5,62.9,43.9,55.0,50.2,42.0,94,66,42,30.19,29.75,16,7,24,0.00
2013-9-14,68.4,61.8,49.2,60.0,51.6,42.0,86,69,54,30.09,29.70,22,8,25,0.03
2013-9-15,58.9,47.5,35.0,42.0,37.6,32.0,91,71,40,30.34,30.09,8,2,11,0.00
2013-9-16,69.9,54.9,36.2,46.0,41.4,34.0,92,64,38,30.34,30.00,18,7,22,0.00
2013-9-17,65.9,59.8,52.0,57.0,51.6,42.0,86,75,63,30.00,29.71,26,11,35,0.00
2013-9-18,70.7,63.7,58.1,63.0,58.1,-99.9,91,84,73,29.71,29.53,14,-5,19,0.00
2013-9-19,66.2,60.4,49.6,63.0,56.3,45.0,93,86,73,29.86,29.54,13,5,20,0.00
2013-9-20,54.2,48.0,41.9,44.0,40.7,37.0,91,77,60,29.98,29.85,13,6,20,0.00
2013-9-21,59.3,48.3,41.0,41.0,39.0,38.0,90,72,48,30.03,29.89,8,2,10,0.00
2013-9-22,69.9,55.9,41.2,53.0,45.8,38.0,88,70,52,29.89,29.56,18,8,26,0.00
2013-9-23,79.7,69.8,61.8,59.0,55.5,53.0,79,61,44,29.64,29.53,21,12,30,0.00
2013-9-24,75.9,63.6,45.9,57.0,48.3,40.0,88,62,28,29.82,29.64,11,4,21,0.00
2013-9-25,76.5,63.1,43.9,57.0,50.8,40.0,86,66,47,29.84,29.73,16,6,21,0.00
2013-9-26,72.2,64.0,57.1,61.0,56.2,52.0,83,76,66,29.76,29.58,15,6,22,0.02
2013-9-27,59.2,53.1,45.6,52.0,48.1,43.0,92,83,69,29.79,29.71,9,2,11,0.07
2013-9-28,51.8,49.5,47.3,49.0,47.2,45.0,93,91,88,29.75,29.59,10,4,15,1.25
2013-9-29,70.4,55.7,40.8,55.0,47.8,39.0,93,76,54,29.68,29.44,18,7,23,0.01
2013-9-30,71.5,62.4,54.4,52.0,46.3,38.0,85,58,31,29.44,29.37,13,6,18,0.00
2013-10-1,61.0,54.2,47.9,51.0,44.2,40.0,92,70,51,29.79,29.39,21,7,32,0.12
2013-10-2,61.9,50.9,38.2,44.0,40.4,34.0,87,69,49,29.95,29.79,10,4,16,0.00
2013-10-3,55.4,46.2,35.2,48.0,39.7,-99.9,93,81,68,30.28,29.94,19,-5,22,0.00
2013-10-4,46.1,39.6,33.5,35.0,32.2,30.0,89,75,62,30.41,30.28,19,5,22,0.00
2013-10-5,52.5,39.6,31.2,39.0,33.4,28.0,91,79,58,30.32,30.00,13,5,18,0.00
2013-10-6,64.2,46.5,30.3,42.0,35.0,28.0,93,68,41,30.01,29.78,11,3,20,0.00
2013-10-7,59.9,48.7,37.2,42.0,38.4,35.0,91,70,48,29.94,29.72,13,4,20,0.00
2013-10-8,66.9,56.8,48.9,50.0,45.5,40.0,77,66,54,29.71,29.55,19,7,24,0.00
2013-10-9,68.6,53.7,41.2,48.0,42.3,38.0,88,68,41,29.99,29.70,6,1,8,0.00
2013-10-10,69.4,53.9,37.5,53.0,45.9,35.0,93,76,48,30.00,29.72,11,2,14,0.00
2013-10-11,69.8,61.5,54.2,56.0,53.9,51.0,91,77,56,29.71,29.29,21,6,23,0.06
2013-10-12,59.8,49.2,38.0,56.0,44.4,34.0,92,84,71,30.07,29.26,21,9,28,0.02
2013-10-13,53.0,42.8,32.9,39.0,32.2,28.0,88,68,39,30.37,30.08,11,4,16,0.00
2013-10-14,50.3,41.5,27.2,39.0,33.3,24.0,90,73,59,30.37,30.28,6,2,8,0.00
2013-10-15,45.2,36.9,27.0,38.0,30.4,24.0,91,78,55,30.28,29.99,12,3,23,0.00
2013-10-16,48.0,35.5,32.1,35.0,29.4,27.0,86,79,62,29.99,29.79,14,7,16,0.00
2013-10-17,47.9,40.8,35.0,31.0,29.2,27.0,77,64,49,29.92,29.91,4,1,13,0.00
2013-10-18,46.2,38.9,28.9,35.0,31.4,26.0,90,75,57,29.91,29.72,11,3,16,0.04
2013-10-19,43.5,37.2,31.2,36.0,33.0,28.0,92,85,63,29.77,29.70,8,3,13,0.01
2013-10-20,36.2,33.0,28.9,32.0,26.6,20.0,93,78,60,29.93,29.72,18,7,26,0.03
2013-10-21,38.1,32.4,28.0,31.0,26.9,22.0,91,80,70,30.02,29.90,17,8,22,0.00
2013-10-22,36.9,32.8,30.3,30.0,26.9,21.0,93,80,59,30.10,30.02,15,5,18,0.00
2013-10-23,36.9,31.1,23.2,32.0,25.5,19.0,89,80,69,30.15,30.06,12,4,14,0.00
2013-10-24,41.6,35.6,29.6,32.0,28.7,25.0,89,77,62,30.25,30.15,13,6,20,0.00
2013-10-25,50.7,38.7,29.6,38.0,30.8,25.0,84,74,61,30.17,29.64,20,10,35,0.00
2013-10-26,40.5,37.6,32.4,31.0,29.3,28.0,88,73,65,30.16,29.76,18,7,24,0.00
2013-10-27,37.6,31.8,21.0,32.0,24.3,15.0,87,74,59,30.52,29.70,25,10,33,0.00
2013-10-28,27.7,20.8,11.3,18.0,14.6,9.0,90,77,62,30.70,30.53,9,2,12,0.00
2013-10-29,34.3,24.2,8.2,19.0,15.1,5.0,91,70,49,30.56,30.12,11,4,15,0.00
2013-10-30,45.8,33.4,23.4,31.0,24.6,18.0,82,71,55,30.12,29.64,17,7,22,0.00
2013-10-31,43.4,33.6,23.9,34.0,29.0,22.0,92,83,69,29.64,29.45,8,2,13,0.00
2013-11-1,43.5,31.4,20.4,36.0,27.5,18.0,93,86,67,29.92,29.48,16,3,17,0.00
2013-11-2,48.1,35.0,26.0,35.0,29.8,24.0,91,82,59,30.00,29.92,8,3,9,0.00
2013-11-3,48.3,42.1,34.4,36.0,32.9,30.0,85,71,59,29.95,29.65,18,9,25,0.00
2013-11-4,46.9,39.2,30.4,36.0,30.0,22.0,79,70,63,29.86,29.60,16,8,25,0.00
2013-11-5,30.9,28.9,27.5,22.0,20.2,19.0,72,70,65,30.14,29.87,16,7,25,0.00
2013-11-6,33.5,28.9,24.0,25.0,21.9,18.0,82,75,67,30.18,30.10,7,4,12,0.00
2013-11-7,34.9,28.8,22.7,25.0,20.9,15.0,87,73,54,30.21,30.07,8,3,12,0.00
2013-11-8,37.6,29.5,17.9,32.0,25.5,13.0,92,85,70,30.07,29.70,12,5,15,0.00
2013-11-9,33.4,32.4,29.9,31.0,29.9,24.0,93,90,80,30.22,29.70,13,4,17,0.12
2013-11-10,29.7,21.3,8.4,25.0,13.7,2.0,86,73,53,30.45,30.08,23,9,32,0.00
2013-11-11,17.0,10.1,4.8,8.0,3.7,0.0,82,75,59,30.75,30.46,13,5,16,0.00
2013-11-12,36.4,23.1,7.6,26.0,15.3,1.0,77,72,65,30.70,29.98,21,9,28,0.00
2013-11-13,48.5,36.9,27.7,34.0,27.3,23.0,88,70,39,29.98,29.66,21,8,30,0.00
2013-11-14,33.0,31.3,26.8,29.0,27.2,24.0,91,85,72,29.83,29.71,6,2,8,0.00
2013-11-15,46.4,36.7,29.1,37.0,31.8,26.0,92,83,70,29.72,29.34,21,9,32,0.00
2013-11-16,37.6,33.4,28.5,35.0,31.3,27.0,93,91,87,29.45,29.30,9,4,12,0.00
2013-11-17,30.3,25.1,20.9,28.0,22.4,16.0,92,89,82,29.96,29.45,23,12,28,0.00
2013-11-18,21.2,18.1,13.3,17.0,14.2,10.0,88,84,73,30.24,29.97,11,4,15,0.00
2013-11-19,34.9,28.1,18.2,28.0,22.9,15.0,89,81,70,30.19,29.55,18,10,26,0.00
2013-11-20,32.7,21.0,12.8,28.0,15.5,8.0,87,79,71,30.33,29.56,17,9,20,0.00
2013-11-21,12.5,6.6,-0.7,9.0,1.8,-4.0,87,81,73,30.64,30.33,14,6,22,0.00
2013-11-22,10.4,6.4,-5.7,6.0,1.5,-10.0,86,80,72,30.91,30.41,16,8,21,0.00
2013-11-23,4.7,-3.1,-11.6,-1.0,-8.9,-16.0,82,76,59,30.96,30.54,12,5,19,0.00
2013-11-24,34.4,18.8,4.5,30.0,13.5,-1.0,86,80,74,30.53,29.65,23,11,37,0.00
2013-11-25,34.5,24.8,13.5,30.0,19.0,7.0,85,79,71,30.16,29.72,21,10,29,0.00
2013-11-26,15.7,9.6,-2.9,9.0,4.8,-7.0,87,81,74,30.52,30.17,16,6,25,0.00
2013-11-27,15.5,11.8,-2.9,11.0,8.2,-7.0,89,85,80,30.47,30.11,16,6,20,0.00
2013-11-28,13.7,5.7,-9.0,11.0,2.4,-13.0,89,86,81,30.55,30.21,6,2,8,0.00
2013-11-29,21.4,13.6,-2.7,17.0,8.6,-99.9,88,83,79,30.54,30.06,14,-5,17,0.00
2013-11-30,20.8,20.0,19.2,17.0,16.4,16.0,88,86,84,30.28,30.06,7,2,10,0.00
2013-12-1,25.1,21.3,19.3,21.0,17.9,16.0,91,86,81,30.26,30.00,6,2,9,0.00
2013-12-2,22.2,19.6,16.4,18.0,16.0,13.0,89,86,81,30.02,29.91,13,6,16,0.00
2013-12-3,17.6,15.0,10.7,14.0,11.4,7.0,88,85,82,30.15,30.01,13,7,17,0.00
2013-12-4,14.4,12.1,9.8,12.0,9.1,7.0,88,88,86,30.15,29.85,18,8,27,0.00
2013-12-5,11.6,4.9,-3.9,9.0,0.9,-8.0,88,83,78,30.30,29.84,23,11,29,0.00
2013-12-6,-0.7,-4.9,-9.8,-7.0,-11.2,-99.9,82,78,74,30.60,30.30,10,-7,15,0.00
2013-12-7,-10.1,-14.0,-17.1,-15.0,-19.3,-22.0,81,76,68,30.61,30.42,10,5,12,0.00
2013-12-8,-4.4,-11.0,-17.5,-9.0,-17.5,-99.9,82,76,71,30.42,30.08,18,-2,23,0.00
2013-12-9,-7.3,-12.7,-18.5,-15.0,-18.0,-23.0,81,77,67,30.07,29.91,8,4,13,0.00
2013-12-10,-4.0,-10.1,-15.2,-10.0,-17.3,-99.9,81,77,76,30.36,29.94,8,-20,12,0.00
2013-12-11,-10.0,-11.3,-12.3,-15.0,-16.0,-17.0,80,79,78,30.28,30.26,6,3,10,0.00
2013-12-12,-3.6,-9.9,-15.9,-9.0,-15.8,-20.0,82,75,69,30.48,30.27,14,5,16,0.00
2013-12-13,-11.9,-13.7,-16.8,-18.0,-20.2,-23.0,78,73,68,30.62,30.49,10,2,12,0.00
2013-12-14,-7.0,-11.4,-20.7,-12.0,-16.7,-26.0,80,77,73,30.57,30.34,7,2,9,0.00
2013-12-15,-2.9,-17.0,-31.9,-8.0,-22.5,-37.0,80,75,72,30.38,30.02,17,4,23,0.00
2013-12-16,29.3,15.1,-2.7,22.0,9.9,-8.0,87,80,71,30.02,29.71,23,10,30,0.00
2013-12-17,24.3,2.8,-6.1,20.0,-3.5,-11.0,86,75,63,30.13,29.73,20,8,25,0.00
2013-12-18,7.8,1.9,-7.7,2.0,-3.7,-13.0,83,77,72,30.19,29.70,22,8,24,0.00
2013-12-19,-4.7,-10.0,-16.4,-10.0,-14.8,-21.0,81,79,74,30.43,30.20,10,4,14,0.00
2013-12-20,3.1,-3.4,-9.2,-4.0,-8.7,-14.0,82,78,70,30.19,29.96,13,5,17,0.00
2013-12-21,-5.9,-13.3,-18.2,-11.0,-18.3,-23.0,81,78,72,30.42,30.03,8,4,11,0.00
2013-12-22,-10.4,-15.6,-20.3,-18.0,-21.3,-25.0,79,75,68,30.64,30.40,9,4,11,0.00
2013-12-23,-8.7,-18.7,-30.5,-17.0,-24.7,-36.0,78,74,68,30.72,30.35,18,4,24,0.00
2013-12-24,10.9,2.0,-11.2,8.0,-2.9,-17.0,86,80,69,30.35,30.01,25,11,36,0.00
2013-12-25,12.8,6.3,-6.0,10.0,0.7,-10.0,87,78,68,30.21,30.06,14,4,22,0.00
2013-12-26,17.3,3.9,-10.6,14.0,-0.8,-15.0,87,81,72,30.19,29.96,15,4,20,0.00
2013-12-27,28.9,21.2,7.4,25.0,17.6,4.0,89,86,83,30.03,29.68,17,10,24,0.00
2013-12-28,8.1,-5.0,-20.9,5.0,-9.2,-26.0,87,81,73,30.59,29.99,30,13,35,0.00
2013-12-29,-12.0,-20.0,-26.3,-20.0,-25.7,-31.0,78,75,66,30.59,30.29,7,3,10,0.00
2013-12-30,-16.7,-24.1,-31.5,-23.0,-29.4,-37.0,79,76,71,30.44,30.28,5,1,8,0.00
2013-12-31,-21.4,-25.8,-31.5,-28.0,-31.5,-37.0,78,74,70,30.62,30.34,7,3,10,0.00
2014-1-1,-12.7,-23.1,-31.9,-22.0,-29.3,-37.0,81,72,61,30.70,30.62,7,2,9,0.00
2014-1-2,-6.4,-17.2,-31.0,-12.0,-22.7,-36.0,79,76,69,30.62,30.09,24,5,29,0.00